START_TIME,STEP,MOV.,AL01,t_acc.,AL02,t_acc.,E37,t_acc.,H21,t_acc.
1979-08-02 03:00:33.140 ,1,0,0.,24.0,0.,24.0,1.,24.0,0.,24.0
1979-08-02 03:00:57.140 ,2,1,0.,24.0,0.,24.0,1.,24.0,0.,24.0
1979-08-02 03:01:21.140 ,2,0,1.,24.0,0.,24.0,0.,24.0,0.,24.0
1979-08-02 03:01:45.140 ,3,1,0.,24.0,0.,24.0,2.,24.0,0.,24.0
1979-08-02 03:02:09.140 ,3,0,0.,24.0,0.,24.0,0.,24.0,0.,24.0
1979-08-02 03:02:33.140 ,4,1,0.,24.0,0.,24.0,1.,24.0,0.,24.0
1979-08-02 03:02:57.140 ,4,0,0.,24.0,0.,24.0,10.,24.0,0.,24.0
1979-08-02 03:03:21.140 ,5,1,1.,24.0,0.,24.0,5.,24.0,0.,24.0
1979-08-02 03:03:45.140 ,5,0,0.,24.0,0.,24.0,4.,24.0,0.,24.0
1979-08-02 03:04:09.140 ,6,1,0.,24.0,0.,24.0,10.,24.0,0.,24.0
1979-08-02 03:04:33.140 ,6,0,0.,24.0,0.,24.0,4.,24.0,0.,24.0
1979-08-02 03:04:57.140 ,7,1,4.,24.0,0.,24.0,7.,24.0,0.,24.0
1979-08-02 03:05:21.140 ,7,0,28.,24.0,0.,24.0,5.,24.0,0.,24.0
1979-08-02 03:05:45.140 ,7,1,34.,24.0,0.,24.0,1.,24.0,0.,24.0
1979-08-02 03:06:09.140 ,7,0,26.,24.0,0.,24.0,3.,24.0,0.,24.0
1979-08-02 03:06:33.140 ,6,1,26.,24.0,0.,24.0,0.,24.0,0.,24.0
1979-08-02 03:06:57.140 ,6,0,0.,24.0,0.,24.0,5.,24.0,0.,24.0
1979-08-02 03:07:21.140 ,0,0,,0,,0,,0,,0
1979-08-02 03:07:45.140 ,0,0,,0,,0,,0,,0
1979-08-02 03:07:45.140 ,5,0,0.,24.0,0.,24.0,3.,24.0,0.,24.0
1979-08-02 03:08:09.140 ,4,1,0.,24.0,0.,24.0,6.,24.0,0.,24.0
1979-08-02 03:08:33.140 ,4,0,0.,24.0,0.,24.0,1.,24.0,0.,24.0
1979-08-02 03:08:57.140 ,3,1,0.,24.0,0.,24.0,1.,24.0,0.,24.0
1979-08-02 03:09:21.140 ,3,0,0.,24.0,0.,24.0,1.,24.0,0.,24.0
1979-08-02 03:09:45.140 ,2,1,0.,24.0,0.,24.0,0.,24.0,0.,24.0
1979-08-02 03:10:09.140 ,2,0,0.,24.0,0.,24.0,0.,24.0,0.,24.0
1979-08-02 03:10:33.140 ,1,1,0.,24.0,0.,24.0,1.,24.0,0.,24.0
1979-08-02 03:10:57.140 ,1,0,0.,24.0,0.,24.0,2.,24.0,0.,24.0
1979-08-02 03:11:21.140 ,0,1,0.,24.0,0.,24.0,1.,24.0,0.,24.0
1979-08-02 03:11:45.140 ,0,0,1.,24.0,0.,24.0,3.,24.0,0.,24.0
1979-08-02 03:12:09.140 ,0,1,0.,24.0,0.,24.0,4.,24.0,0.,24.0
1979-08-02 03:12:33.140 ,0,0,0.,24.0,0.,24.0,3.,24.0,0.,24.0
1979-08-02 03:12:57.140 ,1,1,0.,24.0,0.,24.0,2.,24.0,0.,24.0
1979-08-02 03:13:21.140 ,1,0,0.,24.0,0.,24.0,0.,24.0,0.,24.0
1979-08-02 03:13:45.140 ,2,1,0.,24.0,0.,24.0,0.,24.0,0.,24.0
1979-08-02 03:14:09.140 ,2,0,1.,24.0,0.,24.0,2.,24.0,0.,24.0
1979-08-02 03:14:33.140 ,3,1,0.,24.0,0.,24.0,1.,24.0,0.,24.0
1979-08-02 03:14:57.140 ,3,0,1.,24.0,0.,24.0,0.,24.0,0.,24.0
1979-08-02 03:15:21.140 ,4,1,0.,24.0,0.,24.0,0.,24.0,0.,24.0
1979-08-02 03:15:45.140 ,4,0,0.,24.0,0.,24.0,0.,24.0,0.,24.0
1979-08-02 03:16:09.140 ,5,1,0.,24.0,0.,24.0,1.,24.0,0.,24.0
1979-08-02 03:16:33.140 ,5,0,1.,24.0,0.,24.0,1.,24.0,0.,24.0
1979-08-02 03:16:57.140 ,6,1,0.,24.0,0.,24.0,0.,24.0,0.,24.0
1979-08-02 03:17:21.140 ,6,0,0.,24.0,0.,24.0,1.,24.0,0.,24.0
1979-08-02 03:17:45.140 ,7,1,7.,24.0,0.,24.0,5.,24.0,0.,24.0
1979-08-02 03:18:09.140 ,7,0,26.,24.0,0.,24.0,0.,24.0,0.,24.0
1979-08-02 03:18:33.140 ,7,1,30.,24.0,0.,24.0,1.,24.0,0.,24.0
1979-08-02 03:18:57.140 ,7,0,28.,24.0,0.,24.0,1.,24.0,0.,24.0
1979-08-02 03:19:21.140 ,6,1,27.,24.0,0.,24.0,0.,24.0,0.,24.0
1979-08-02 03:19:45.140 ,6,0,0.,24.0,1.,24.0,1.,24.0,0.,24.0
1979-08-02 03:20:09.140 ,5,1,0.,24.0,0.,24.0,2.,24.0,0.,24.0
1979-08-02 03:20:33.140 ,5,0,0.,24.0,0.,24.0,1.,24.0,0.,24.0
1979-08-02 03:20:57.140 ,4,1,1.,24.0,0.,24.0,1.,24.0,0.,24.0
1979-08-02 03:21:21.140 ,4,0,0.,24.0,0.,24.0,0.,24.0,0.,24.0
1979-08-02 03:21:45.140 ,3,1,0.,24.0,1.,24.0,0.,24.0,0.,24.0
1979-08-02 03:22:09.140 ,3,0,0.,24.0,0.,24.0,0.,24.0,0.,24.0
1979-08-02 03:22:33.140 ,2,1,0.,24.0,0.,24.0,1.,24.0,0.,24.0
1979-08-02 03:22:57.140 ,2,0,0.,24.0,0.,24.0,1.,24.0,0.,24.0
1979-08-02 03:23:21.140 ,1,1,0.,24.0,0.,24.0,2.,24.0,0.,24.0
1979-08-02 03:23:45.140 ,1,0,0.,24.0,0.,24.0,3.,24.0,0.,24.0
1979-08-02 03:24:09.140 ,0,1,0.,24.0,0.,24.0,3.,24.0,0.,24.0
1979-08-02 03:24:33.140 ,0,0,0.,24.0,0.,24.0,5.,24.0,0.,24.0
1979-08-02 03:24:57.140 ,0,1,0.,24.0,0.,24.0,1.,24.0,0.,24.0
1979-08-02 03:25:21.140 ,0,0,0.,24.0,0.,24.0,1.,24.0,0.,24.0
1979-08-02 03:25:45.140 ,1,1,1.,24.0,0.,24.0,3.,24.0,0.,24.0
1979-08-02 03:26:09.140 ,1,0,0.,24.0,0.,24.0,2.,24.0,0.,24.0
1979-08-02 03:26:33.140 ,2,1,1.,24.0,0.,24.0,4.,24.0,0.,24.0
1979-08-02 03:26:57.140 ,2,0,1.,24.0,0.,24.0,1.,24.0,0.,24.0
1979-08-02 03:27:21.140 ,3,1,0.,24.0,0.,24.0,1.,24.0,0.,24.0
1979-08-02 03:27:45.140 ,3,0,1.,24.0,0.,24.0,2.,24.0,0.,24.0
1979-08-02 03:28:09.140 ,4,1,0.,24.0,0.,24.0,2.,24.0,0.,24.0
1979-08-02 03:28:33.140 ,4,0,0.,24.0,0.,24.0,0.,24.0,0.,24.0
1979-08-02 03:28:57.140 ,5,1,0.,24.0,0.,24.0,4.,24.0,0.,24.0
1979-08-02 03:29:21.140 ,5,0,1.,24.0,0.,24.0,1.,24.0,0.,24.0
1979-08-02 03:29:45.140 ,6,1,0.,24.0,0.,24.0,0.,24.0,0.,24.0
1979-08-02 03:30:09.140 ,6,0,0.,24.0,1.,24.0,2.,24.0,0.,24.0
1979-08-02 03:30:33.140 ,7,0,12.,24.0,0.,24.0,2.,24.0,0.,24.0
1979-08-02 03:30:57.140 ,7,0,39.,24.0,0.,24.0,1.,24.0,0.,24.0
1979-08-02 03:31:21.140 ,5,1,22.,24.0,0.,24.0,5.,24.0,0.,24.0
1979-08-02 03:31:45.140 ,1,1,0.,24.0,0.,24.0,1.,24.0,0.,24.0
1979-08-02 03:32:09.140 ,2,1,1.,24.0,1.,24.0,1.,24.0,0.,24.0
1979-08-02 03:32:33.140 ,6,1,0.,24.0,0.,24.0,4.,24.0,0.,24.0
1979-08-02 03:32:57.140 ,5,1,11.,24.0,0.,24.0,1.,24.0,0.,24.0
1979-08-02 03:33:21.140 ,1,1,0.,24.0,0.,24.0,1.,24.0,0.,24.0
1979-08-02 03:33:45.140 ,2,1,0.,24.0,0.,24.0,2.,24.0,0.,24.0
1979-08-02 03:34:09.140 ,6,1,0.,24.0,0.,24.0,2.,24.0,0.,24.0
1979-08-02 03:34:33.140 ,5,1,16.,24.0,0.,24.0,1.,24.0,0.,24.0
1979-08-02 03:34:57.140 ,1,1,0.,24.0,0.,24.0,0.,24.0,0.,24.0
1979-08-02 03:35:21.140 ,2,1,0.,24.0,0.,24.0,1.,24.0,0.,24.0
1979-08-02 03:35:45.140 ,6,1,0.,24.0,0.,24.0,1.,24.0,0.,24.0
1979-08-02 03:36:09.140 ,5,1,18.,24.0,0.,24.0,1.,24.0,0.,24.0
1979-08-02 03:36:33.140 ,1,1,0.,24.0,0.,24.0,1.,24.0,0.,24.0
1979-08-02 03:36:57.140 ,2,1,0.,24.0,0.,24.0,0.,24.0,0.,24.0
1979-08-02 03:37:21.140 ,6,1,0.,24.0,0.,24.0,4.,24.0,0.,24.0
1979-08-02 03:37:45.140 ,5,1,17.,24.0,0.,24.0,3.,24.0,0.,24.0
1979-08-02 03:38:09.140 ,1,1,0.,24.0,0.,24.0,1.,24.0,0.,24.0
1979-08-02 03:38:33.140 ,2,1,0.,24.0,0.,24.0,3.,24.0,0.,24.0
1979-08-02 03:38:57.140 ,6,1,0.,24.0,0.,24.0,7.,24.0,0.,24.0
1979-08-02 03:39:21.140 ,5,1,26.,24.0,0.,24.0,3.,24.0,0.,24.0
1979-08-02 03:39:45.140 ,1,1,0.,24.0,0.,24.0,2.,24.0,0.,24.0
1979-08-02 03:40:09.140 ,2,1,1.,24.0,0.,24.0,0.,24.0,0.,24.0
1979-08-02 03:40:33.140 ,6,1,0.,24.0,0.,24.0,2.,24.0,0.,24.0
1979-08-02 03:40:57.140 ,5,1,17.,24.0,0.,24.0,4.,24.0,0.,24.0
1979-08-02 03:41:21.140 ,1,1,0.,24.0,0.,24.0,1.,24.0,0.,24.0
1979-08-02 03:41:45.140 ,0,0,0.,24.0,0.,24.0,2.,24.0,0.,24.0
1979-08-02 03:42:09.140 ,0,0,0.,24.0,0.,24.0,3.,24.0,0.,24.0
1979-08-02 03:42:33.140 ,5,1,16.,24.0,0.,24.0,2.,24.0,0.,24.0
1979-08-02 03:42:57.140 ,5,0,0.,24.0,0.,24.0,1.,24.0,0.,24.0
1979-08-02 03:43:21.140 ,4,1,0.,24.0,0.,24.0,2.,24.0,0.,24.0
1979-08-02 03:43:45.140 ,4,0,1.,24.0,0.,24.0,3.,24.0,0.,24.0
1979-08-02 03:44:09.140 ,3,1,0.,24.0,0.,24.0,1.,24.0,0.,24.0
1979-08-02 03:44:33.140 ,3,0,0.,24.0,0.,24.0,0.,24.0,0.,24.0
1979-08-02 03:44:57.140 ,2,1,0.,24.0,0.,24.0,1.,24.0,0.,24.0
1979-08-02 03:45:21.140 ,2,0,0.,24.0,0.,24.0,1.,24.0,0.,24.0
1979-08-02 03:45:45.140 ,1,1,0.,24.0,0.,24.0,2.,24.0,0.,24.0
1979-08-02 03:46:09.140 ,1,0,0.,24.0,0.,24.0,0.,24.0,0.,24.0
1979-08-02 03:46:33.140 ,0,1,0.,24.0,0.,24.0,2.,24.0,0.,24.0
1979-08-02 03:46:57.140 ,0,0,0.,24.0,0.,24.0,3.,24.0,0.,24.0
1979-08-02 03:47:21.140 ,0,1,0.,24.0,0.,24.0,3.,24.0,0.,24.0
1979-08-02 03:47:45.140 ,0,0,0.,24.0,0.,24.0,2.,24.0,0.,24.0
1979-08-02 03:48:09.140 ,1,1,0.,24.0,0.,24.0,3.,24.0,0.,24.0
1979-08-02 03:48:33.140 ,1,0,0.,24.0,0.,24.0,1.,24.0,0.,24.0
1979-08-02 03:48:57.140 ,2,1,0.,24.0,0.,24.0,1.,24.0,0.,24.0
1979-08-02 03:49:21.140 ,2,0,0.,24.0,0.,24.0,1.,24.0,0.,24.0
1979-08-02 03:49:45.140 ,3,1,0.,24.0,0.,24.0,0.,24.0,0.,24.0
1979-08-02 03:50:09.140 ,3,0,0.,24.0,0.,24.0,3.,24.0,0.,24.0
1979-08-02 03:50:33.140 ,4,1,0.,24.0,0.,24.0,0.,24.0,0.,24.0
1979-08-02 03:50:57.140 ,4,0,1.,24.0,0.,24.0,2.,24.0,0.,24.0
1979-08-02 03:51:21.140 ,5,1,0.,24.0,0.,24.0,4.,24.0,0.,24.0
1979-08-02 03:51:45.140 ,5,0,0.,24.0,0.,24.0,1.,24.0,0.,24.0
1979-08-02 03:52:09.140 ,6,1,0.,24.0,0.,24.0,2.,24.0,0.,24.0
1979-08-02 03:52:33.140 ,6,0,0.,24.0,0.,24.0,2.,24.0,0.,24.0
1979-08-02 03:52:57.140 ,7,1,10.,24.0,0.,24.0,2.,24.0,0.,24.0
1979-08-02 03:53:21.140 ,7,0,24.,24.0,0.,24.0,2.,24.0,0.,24.0
1979-08-02 03:53:45.140 ,7,1,31.,24.0,1.,24.0,0.,24.0,0.,24.0
1979-08-02 03:54:09.140 ,7,0,23.,24.0,0.,24.0,3.,24.0,0.,24.0
1979-08-02 03:54:33.140 ,6,1,15.,24.0,0.,24.0,0.,24.0,0.,24.0
1979-08-02 03:54:57.140 ,6,0,0.,24.0,0.,24.0,2.,24.0,0.,24.0
1979-08-02 03:55:21.140 ,5,1,0.,24.0,0.,24.0,2.,24.0,0.,24.0
1979-08-02 03:55:45.140 ,5,0,0.,24.0,0.,24.0,3.,24.0,0.,24.0
1979-08-02 03:56:09.140 ,4,1,0.,24.0,0.,24.0,1.,24.0,0.,24.0
1979-08-02 03:56:33.140 ,4,0,0.,24.0,0.,24.0,1.,24.0,0.,24.0
1979-08-02 03:56:57.140 ,3,1,0.,24.0,0.,24.0,0.,24.0,0.,24.0
1979-08-02 03:57:21.140 ,3,0,1.,24.0,0.,24.0,2.,24.0,0.,24.0
1979-08-02 03:57:45.140 ,2,1,0.,24.0,0.,24.0,1.,24.0,0.,24.0
1979-08-02 03:58:09.140 ,2,0,0.,24.0,0.,24.0,0.,24.0,0.,24.0
1979-08-02 03:58:33.140 ,1,1,0.,24.0,0.,24.0,0.,24.0,0.,24.0
1979-08-02 03:58:57.140 ,1,0,0.,24.0,0.,24.0,1.,24.0,0.,24.0
1979-08-02 03:59:21.140 ,0,1,0.,24.0,0.,24.0,0.,24.0,0.,24.0
1979-08-02 03:59:45.140 ,0,0,0.,24.0,0.,24.0,2.,24.0,0.,24.0
1979-08-02 04:00:09.140 ,0,1,0.,24.0,0.,24.0,1.,24.0,0.,24.0
1979-08-02 04:00:33.140 ,0,0,1.,24.0,0.,24.0,3.,24.0,0.,24.0
1979-08-02 04:00:57.140 ,1,1,0.,24.0,0.,24.0,0.,24.0,0.,24.0
1979-08-02 04:01:21.140 ,1,0,0.,24.0,0.,24.0,3.,24.0,0.,24.0
1979-08-02 04:01:45.140 ,2,1,0.,24.0,0.,24.0,1.,24.0,0.,24.0
1979-08-02 04:02:09.140 ,2,0,0.,24.0,0.,24.0,1.,24.0,0.,24.0
1979-08-02 04:02:33.140 ,3,1,0.,24.0,0.,24.0,0.,24.0,0.,24.0
1979-08-02 04:02:57.140 ,3,0,0.,24.0,0.,24.0,1.,24.0,0.,24.0
1979-08-02 04:03:21.140 ,4,1,0.,24.0,0.,24.0,2.,24.0,0.,24.0
1979-08-02 04:03:45.140 ,4,0,0.,24.0,0.,24.0,2.,24.0,0.,24.0
1979-08-02 04:04:09.140 ,5,1,0.,24.0,0.,24.0,1.,24.0,0.,24.0
1979-08-02 04:04:33.140 ,5,0,0.,24.0,0.,24.0,2.,24.0,0.,24.0
1979-08-02 04:04:57.140 ,6,1,0.,24.0,0.,24.0,1.,24.0,0.,24.0
1979-08-02 04:05:21.140 ,6,0,1.,24.0,0.,24.0,1.,24.0,0.,24.0
1979-08-02 04:05:45.140 ,7,1,5.,24.0,0.,24.0,4.,24.0,0.,24.0
1979-08-02 04:06:09.140 ,7,0,30.,24.0,0.,24.0,3.,24.0,0.,24.0
1979-08-02 04:06:33.140 ,7,1,37.,24.0,0.,24.0,1.,24.0,0.,24.0
1979-08-02 04:06:57.140 ,7,0,39.,24.0,0.,24.0,1.,24.0,0.,24.0
1979-08-02 04:07:21.140 ,6,1,29.,24.0,0.,24.0,1.,24.0,0.,24.0
1979-08-02 04:07:45.140 ,6,0,0.,24.0,0.,24.0,0.,24.0,0.,24.0
1979-08-02 04:08:09.140 ,5,1,0.,24.0,0.,24.0,0.,24.0,0.,24.0
1979-08-02 04:08:33.140 ,5,0,0.,24.0,0.,24.0,1.,24.0,0.,24.0
1979-08-02 04:08:57.140 ,4,1,0.,24.0,0.,24.0,2.,24.0,0.,24.0
1979-08-02 04:09:21.140 ,4,0,0.,24.0,0.,24.0,1.,24.0,0.,24.0
1979-08-02 04:09:45.140 ,3,1,0.,24.0,0.,24.0,2.,24.0,0.,24.0
1979-08-02 04:10:09.140 ,0,0,0.,24.0,0.,24.0,0.,24.0,0.,24.0
1979-08-02 04:10:33.140 ,2,1,0.,24.0,0.,24.0,1.,24.0,0.,24.0
1979-08-02 04:10:57.140 ,2,0,0.,24.0,0.,24.0,0.,24.0,0.,24.0
1979-08-02 04:11:21.140 ,1,1,0.,24.0,0.,24.0,1.,24.0,0.,24.0
1979-08-02 04:11:45.140 ,1,0,1.,24.0,0.,24.0,0.,24.0,0.,24.0
1979-08-02 04:12:09.140 ,0,1,0.,24.0,0.,24.0,1.,24.0,0.,24.0
1979-08-02 04:12:33.140 ,0,0,0.,24.0,0.,24.0,1.,24.0,0.,24.0
1979-08-02 04:12:57.140 ,0,1,0.,24.0,0.,24.0,0.,24.0,0.,24.0
1979-08-02 04:13:21.140 ,0,0,0.,24.0,0.,24.0,3.,24.0,0.,24.0
1979-08-02 04:13:45.140 ,1,1,0.,24.0,0.,24.0,2.,24.0,0.,24.0
1979-08-02 04:14:09.140 ,1,0,0.,24.0,0.,24.0,3.,24.0,0.,24.0
1979-08-02 04:14:33.140 ,2,1,0.,24.0,0.,24.0,0.,24.0,0.,24.0
1979-08-02 04:14:57.140 ,2,0,0.,24.0,0.,24.0,1.,24.0,0.,24.0
1979-08-02 04:15:21.140 ,3,1,0.,24.0,0.,24.0,1.,24.0,0.,24.0
1979-08-02 04:15:45.140 ,3,0,0.,24.0,0.,24.0,0.,24.0,0.,24.0
1979-08-02 04:16:09.140 ,4,1,0.,24.0,0.,24.0,2.,24.0,0.,24.0
1979-08-02 04:16:33.140 ,4,0,0.,24.0,1.,24.0,1.,24.0,0.,24.0
1979-08-02 04:16:57.140 ,5,1,0.,24.0,0.,24.0,2.,24.0,0.,24.0
1979-08-02 04:17:21.140 ,5,0,0.,24.0,0.,24.0,0.,24.0,0.,24.0
1979-08-02 04:17:45.140 ,6,1,1.,24.0,0.,24.0,3.,24.0,0.,24.0
1979-08-02 04:18:09.140 ,6,0,0.,24.0,0.,24.0,2.,24.0,0.,24.0
1979-08-02 04:18:33.140 ,7,0,7.,24.0,0.,24.0,0.,24.0,0.,24.0
1979-08-02 04:18:57.140 ,7,0,28.,24.0,0.,24.0,1.,24.0,0.,24.0
1979-08-02 04:19:21.140 ,5,1,10.,24.0,0.,24.0,1.,24.0,0.,24.0
1979-08-02 04:19:45.140 ,1,1,0.,24.0,0.,24.0,2.,24.0,0.,24.0
1979-08-02 04:20:09.140 ,2,1,0.,24.0,0.,24.0,1.,24.0,0.,24.0
1979-08-02 04:20:33.140 ,6,1,0.,24.0,0.,24.0,1.,24.0,0.,24.0
1979-08-02 04:20:57.140 ,5,1,20.,24.0,0.,24.0,1.,24.0,0.,24.0
1979-08-02 04:21:21.140 ,1,1,0.,24.0,0.,24.0,2.,24.0,0.,24.0
1979-08-02 04:21:45.140 ,2,1,0.,24.0,0.,24.0,0.,24.0,0.,24.0
1979-08-02 04:22:09.140 ,6,1,0.,24.0,0.,24.0,1.,24.0,0.,24.0
1979-08-02 04:22:33.140 ,5,1,16.,24.0,0.,24.0,1.,24.0,0.,24.0
1979-08-02 04:22:57.140 ,1,1,0.,24.0,0.,24.0,2.,24.0,0.,24.0
1979-08-02 04:23:21.140 ,2,1,0.,24.0,0.,24.0,6.,24.0,0.,24.0
1979-08-02 04:23:45.140 ,6,1,0.,24.0,0.,24.0,3.,24.0,0.,24.0
1979-08-02 04:24:09.140 ,5,1,19.,24.0,0.,24.0,1.,24.0,0.,24.0
1979-08-02 04:24:33.140 ,1,1,0.,24.0,0.,24.0,0.,24.0,0.,24.0
1979-08-02 04:24:57.140 ,2,1,0.,24.0,0.,24.0,0.,24.0,0.,24.0
1979-08-02 04:25:21.140 ,6,1,1.,24.0,1.,24.0,0.,24.0,0.,24.0
1979-08-02 04:25:45.140 ,0,0,,0,,0,,0,,0
1979-08-02 04:26:09.140 ,0,0,,0,,0,,0,,0
1979-08-02 04:26:52.940 ,0,0,,0,,0,,0,,0
1979-08-02 04:26:57.140 ,0,0,,0,,0,,0,,0
1979-08-02 04:27:37.940 ,0,0,,0,,0,,0,,0
1979-08-02 04:27:45.140 ,1,1,0.,24.0,0.,24.0,0.,24.0,0.,24.0
1979-08-02 04:28:09.140 ,2,1,0.,24.0,0.,24.0,1.,24.0,0.,24.0
1979-08-02 04:28:33.140 ,6,1,0.,24.0,0.,24.0,3.,24.0,0.,24.0
1979-08-02 04:28:57.140 ,5,1,20.,24.0,0.,24.0,1.,24.0,0.,24.0
1979-08-02 04:29:21.140 ,1,1,0.,24.0,1.,24.0,1.,24.0,0.,24.0
1979-08-02 04:29:45.140 ,0,0,0.,24.0,0.,24.0,0.,24.0,0.,24.0
1979-08-02 04:30:09.140 ,0,0,0.,24.0,0.,24.0,2.,24.0,0.,24.0
1979-08-02 04:30:33.140 ,5,1,16.,24.0,0.,24.0,1.,24.0,0.,24.0
1979-08-02 04:30:57.140 ,5,0,0.,24.0,0.,24.0,0.,24.0,0.,24.0
1979-08-02 04:31:21.140 ,4,1,0.,24.0,0.,24.0,1.,24.0,0.,24.0
1979-08-02 04:31:45.140 ,4,0,0.,24.0,0.,24.0,1.,24.0,0.,24.0
1979-08-02 04:32:09.140 ,3,1,1.,24.0,0.,24.0,1.,24.0,0.,24.0
1979-08-02 04:32:33.140 ,3,0,0.,24.0,0.,24.0,0.,24.0,0.,24.0
1979-08-02 04:32:57.140 ,2,1,0.,24.0,0.,24.0,0.,24.0,0.,24.0
1979-08-02 04:33:21.140 ,2,0,0.,24.0,0.,24.0,0.,24.0,0.,24.0
1979-08-02 04:33:45.140 ,1,1,0.,24.0,0.,24.0,1.,24.0,0.,24.0
1979-08-02 04:34:09.140 ,1,0,0.,24.0,0.,24.0,1.,24.0,0.,24.0
1979-08-02 04:34:33.140 ,0,1,1.,24.0,0.,24.0,0.,24.0,0.,24.0
1979-08-02 04:34:57.140 ,0,0,0.,24.0,0.,24.0,1.,24.0,0.,24.0
1979-08-02 04:35:21.140 ,0,1,0.,24.0,0.,24.0,0.,24.0,0.,24.0
1979-08-02 04:35:45.140 ,0,0,0.,24.0,0.,24.0,2.,24.0,0.,24.0
1979-08-02 04:36:09.140 ,1,1,0.,24.0,0.,24.0,0.,24.0,0.,24.0
1979-08-02 04:36:33.140 ,1,0,0.,24.0,0.,24.0,0.,24.0,0.,24.0
1979-08-02 04:36:57.140 ,2,1,0.,24.0,0.,24.0,0.,24.0,0.,24.0
1979-08-02 04:37:21.140 ,2,0,0.,24.0,0.,24.0,1.,24.0,0.,24.0
1979-08-02 04:37:45.140 ,3,1,0.,24.0,0.,24.0,0.,24.0,0.,24.0
1979-08-02 04:38:09.140 ,3,0,0.,24.0,0.,24.0,1.,24.0,0.,24.0
1979-08-02 04:38:33.140 ,4,1,0.,24.0,0.,24.0,1.,24.0,0.,24.0
1979-08-02 04:38:57.140 ,4,0,0.,24.0,0.,24.0,2.,24.0,0.,24.0
1979-08-02 04:39:21.140 ,5,1,0.,24.0,0.,24.0,0.,24.0,0.,24.0
1979-08-02 04:39:45.140 ,5,0,0.,24.0,0.,24.0,0.,24.0,0.,24.0
1979-08-02 04:40:09.140 ,6,1,0.,24.0,0.,24.0,1.,24.0,0.,24.0
1979-08-02 04:40:33.140 ,6,0,0.,24.0,0.,24.0,1.,24.0,0.,24.0
1979-08-02 04:40:57.140 ,7,1,8.,24.0,0.,24.0,2.,24.0,0.,24.0
1979-08-02 04:41:21.140 ,7,0,32.,24.0,0.,24.0,2.,24.0,0.,24.0
1979-08-02 04:41:45.140 ,7,1,26.,24.0,0.,24.0,0.,24.0,0.,24.0
1979-08-02 04:42:09.140 ,7,0,32.,24.0,0.,24.0,2.,24.0,0.,24.0
1979-08-02 04:42:33.140 ,6,1,22.,24.0,0.,24.0,1.,24.0,0.,24.0
1979-08-02 04:42:57.140 ,6,0,0.,24.0,0.,24.0,1.,24.0,0.,24.0
1979-08-02 04:43:21.140 ,5,1,0.,24.0,0.,24.0,2.,24.0,0.,24.0
1979-08-02 04:43:45.140 ,5,0,1.,24.0,0.,24.0,4.,24.0,0.,24.0
1979-08-02 04:44:09.140 ,4,1,0.,24.0,0.,24.0,3.,24.0,0.,24.0
1979-08-02 04:44:33.140 ,4,0,0.,24.0,0.,24.0,1.,24.0,0.,24.0
1979-08-02 04:44:57.140 ,3,1,0.,24.0,0.,24.0,0.,24.0,0.,24.0
1979-08-02 04:45:21.140 ,3,0,0.,24.0,0.,24.0,1.,24.0,0.,24.0
1979-08-02 04:45:45.140 ,2,1,0.,24.0,0.,24.0,0.,24.0,0.,24.0
1979-08-02 04:46:09.140 ,2,0,0.,24.0,0.,24.0,0.,24.0,0.,24.0
1979-08-02 04:46:33.140 ,1,1,0.,24.0,0.,24.0,2.,24.0,0.,24.0
1979-08-02 05:20:57.140 ,2,1,0.,24.0,0.,24.0,2.,24.0,0.,24.0
1979-08-02 05:21:21.140 ,2,0,0.,24.0,0.,24.0,3.,24.0,0.,24.0
1979-08-02 05:21:45.140 ,1,1,0.,24.0,0.,24.0,0.,24.0,0.,24.0
1979-08-02 05:22:09.140 ,1,0,0.,24.0,0.,24.0,0.,24.0,0.,24.0
1979-08-02 05:22:33.140 ,0,1,0.,24.0,0.,24.0,1.,24.0,0.,24.0
1979-08-02 05:22:57.140 ,0,0,0.,24.0,0.,24.0,1.,24.0,0.,24.0
1979-08-02 05:23:21.140 ,0,1,0.,24.0,0.,24.0,0.,24.0,0.,24.0
1979-08-02 05:23:45.140 ,0,0,1.,24.0,0.,24.0,0.,24.0,0.,24.0
1979-08-02 05:24:09.140 ,1,1,0.,24.0,0.,24.0,0.,24.0,0.,24.0
1979-08-02 05:24:33.140 ,1,0,0.,24.0,0.,24.0,1.,24.0,0.,24.0
1979-08-02 05:24:57.140 ,2,1,0.,24.0,0.,24.0,0.,24.0,0.,24.0
1979-08-02 05:25:21.140 ,2,0,0.,24.0,0.,24.0,2.,24.0,0.,24.0
1979-08-02 05:25:45.140 ,3,1,0.,24.0,0.,24.0,1.,24.0,0.,24.0
1979-08-02 05:26:09.140 ,3,0,0.,24.0,0.,24.0,2.,24.0,0.,24.0
1979-08-02 05:26:33.140 ,4,1,0.,24.0,0.,24.0,0.,24.0,0.,24.0
1979-08-02 05:26:57.140 ,4,0,0.,24.0,0.,24.0,1.,24.0,0.,24.0
1979-08-02 05:27:21.140 ,5,1,0.,24.0,0.,24.0,0.,24.0,0.,24.0
1979-08-02 05:27:45.140 ,5,0,0.,24.0,0.,24.0,2.,24.0,0.,24.0
1979-08-02 05:28:09.140 ,6,1,0.,24.0,0.,24.0,0.,24.0,0.,24.0
1979-08-02 05:28:33.140 ,6,0,0.,24.0,0.,24.0,3.,24.0,0.,24.0
1979-08-02 05:28:57.140 ,7,1,9.,24.0,0.,24.0,1.,24.0,0.,24.0
1979-08-02 05:29:21.140 ,7,0,27.,24.0,0.,24.0,3.,24.0,0.,24.0
1979-08-02 05:29:45.140 ,7,1,33.,24.0,0.,24.0,0.,24.0,0.,24.0
1979-08-02 05:30:09.140 ,7,0,33.,24.0,0.,24.0,2.,24.0,0.,24.0
1979-08-02 05:30:33.140 ,6,1,28.,24.0,0.,24.0,2.,24.0,0.,24.0
1979-08-02 05:30:57.140 ,6,0,0.,24.0,0.,24.0,0.,24.0,0.,24.0
1979-08-02 05:31:21.140 ,5,1,0.,24.0,0.,24.0,1.,24.0,0.,24.0
1979-08-02 05:31:45.140 ,5,0,0.,24.0,0.,24.0,0.,24.0,0.,24.0
1979-08-02 05:32:09.140 ,4,1,0.,24.0,0.,24.0,1.,24.0,0.,24.0
1979-08-02 05:32:33.140 ,4,0,0.,24.0,0.,24.0,1.,24.0,0.,24.0
1979-08-02 05:32:57.140 ,3,1,0.,24.0,0.,24.0,0.,24.0,0.,24.0
1979-08-02 05:33:21.140 ,3,0,0.,24.0,0.,24.0,1.,24.0,0.,24.0
1979-08-02 05:33:45.140 ,2,1,0.,24.0,0.,24.0,0.,24.0,0.,24.0
1979-08-02 05:34:09.140 ,0,0,0.,24.0,0.,24.0,1.,24.0,0.,24.0
1979-08-02 05:34:20.540 ,0,0,0.,24.0,0.,24.0,1.,24.0,0.,24.0
1979-08-02 05:34:33.140 ,1,1,1.,24.0,0.,24.0,0.,24.0,0.,24.0
1979-08-02 05:34:57.140 ,1,0,0.,24.0,0.,24.0,1.,24.0,0.,24.0
1979-08-02 05:35:21.140 ,0,1,0.,24.0,2.,24.0,0.,24.0,0.,24.0
1979-08-02 05:35:45.140 ,0,0,0.,24.0,0.,24.0,0.,24.0,0.,24.0
1979-08-02 05:36:09.140 ,0,1,0.,24.0,0.,24.0,1.,24.0,0.,24.0
1979-08-02 05:36:33.140 ,0,1,0.,24.0,0.,24.0,5.,24.0,0.,24.0
1979-08-02 05:36:57.140 ,1,1,0.,24.0,0.,24.0,0.,24.0,0.,24.0
1979-08-02 05:37:21.140 ,1,0,0.,24.0,0.,24.0,1.,24.0,0.,24.0
1979-08-02 05:37:45.140 ,2,1,0.,24.0,0.,24.0,2.,24.0,0.,24.0
1979-08-02 05:38:09.140 ,2,0,0.,24.0,0.,24.0,1.,24.0,0.,24.0
1979-08-02 05:38:33.140 ,3,1,0.,24.0,0.,24.0,0.,24.0,0.,24.0
1979-08-02 05:38:57.140 ,3,0,1.,24.0,0.,24.0,1.,24.0,0.,24.0
1979-08-02 05:39:21.140 ,4,1,0.,24.0,0.,24.0,0.,24.0,0.,24.0
1979-08-02 05:39:45.140 ,4,0,1.,24.0,0.,24.0,3.,24.0,0.,24.0
1979-08-02 05:40:09.140 ,5,1,1.,24.0,0.,24.0,1.,24.0,0.,24.0
1979-08-02 05:40:33.140 ,5,0,1.,24.0,0.,24.0,0.,24.0,0.,24.0
1979-08-02 05:40:57.140 ,0,0,0.,24.0,1.,24.0,0.,24.0,0.,24.0
1979-08-02 05:41:21.140 ,0,0,0.,24.0,0.,24.0,1.,24.0,0.,24.0
1979-08-02 05:41:45.140 ,0,0,7.,24.0,0.,24.0,1.,24.0,0.,24.0
1979-08-02 05:42:09.140 ,0,0,34.,24.0,0.,24.0,0.,24.0,0.,24.0
1979-08-02 05:42:33.140 ,0,0,30.,24.0,0.,24.0,0.,24.0,0.,24.0
1979-08-02 05:42:57.140 ,0,0,31.,24.0,0.,24.0,2.,24.0,0.,24.0
1979-08-02 05:43:21.140 ,0,0,20.,24.0,0.,24.0,1.,24.0,0.,24.0
1979-08-02 05:43:45.140 ,0,0,2.,24.0,0.,24.0,2.,24.0,0.,24.0
1979-08-02 05:44:09.140 ,0,0,0.,24.0,0.,24.0,2.,24.0,0.,24.0
1979-08-02 05:44:33.140 ,0,0,0.,24.0,0.,24.0,2.,24.0,0.,24.0
1979-08-02 05:44:57.140 ,0,0,0.,24.0,0.,24.0,3.,24.0,0.,24.0
1979-08-02 05:45:21.140 ,0,0,0.,24.0,0.,24.0,0.,24.0,0.,24.0
1979-08-02 05:45:45.140 ,3,1,0.,24.0,0.,24.0,2.,24.0,0.,24.0
1979-08-02 05:46:09.140 ,0,0,0.,24.0,0.,24.0,0.,24.0,0.,24.0
1979-08-02 05:46:33.740 ,0,0,,0,,0,,0,,0
1979-08-02 05:46:57.140 ,0,0,2.,24.0,0.,24.0,0.,24.0,0.,24.0
1979-08-02 05:47:21.140 ,1,1,,0,,0,,0,,0
1979-08-02 05:47:45.140 ,0,0,0.,24.0,0.,24.0,1.,24.0,0.,24.0
1979-08-02 05:48:09.740 ,0,1,0.,24.0,0.,24.0,0.,24.0,0.,24.0
1979-08-02 05:48:33.140 ,0,0,,0,,0,,0,,0
1979-08-02 05:48:57.140 ,0,1,1.,24.0,0.,24.0,0.,24.0,0.,24.0
1979-08-02 05:49:21.140 ,0,1,0.,24.0,0.,24.0,2.,24.0,0.,24.0
1979-08-02 05:49:45.140 ,1,1,,0,,0,,0,,0
1979-08-02 05:50:09.140 ,0,0,0.,24.0,0.,24.0,0.,24.0,0.,24.0
1979-08-02 05:50:33.140 ,0,0,0.,24.0,0.,24.0,0.,24.0,0.,24.0
1979-08-02 05:50:57.140 ,0,1,2.,24.0,0.,24.0,0.,24.0,0.,24.0
1979-08-02 05:51:21.140 ,3,1,0.,24.0,0.,24.0,3.,24.0,0.,24.0
1979-08-02 05:51:45.140 ,3,0,0.,24.0,1.,24.0,0.,24.0,0.,24.0
1979-08-02 05:52:09.140 ,4,1,1.,24.0,0.,24.0,0.,24.0,0.,24.0
1979-08-02 05:52:33.140 ,4,0,0.,24.0,0.,24.0,1.,24.0,0.,24.0
1979-08-02 05:52:57.140 ,5,1,0.,24.0,0.,24.0,0.,24.0,0.,24.0
1979-08-02 05:53:21.140 ,5,0,0.,24.0,0.,24.0,0.,24.0,0.,24.0
1979-08-02 05:53:45.140 ,6,1,0.,24.0,0.,24.0,1.,24.0,0.,24.0
1979-08-02 05:54:09.140 ,6,0,1.,24.0,0.,24.0,1.,24.0,0.,24.0
1979-08-02 05:54:33.140 ,7,0,10.,24.0,0.,24.0,2.,24.0,0.,24.0
1979-08-02 05:54:57.140 ,7,0,26.,24.0,0.,24.0,1.,24.0,0.,24.0
1979-08-02 05:55:21.140 ,5,1,17.,24.0,0.,24.0,0.,24.0,0.,24.0
1979-08-02 05:55:45.140 ,1,1,0.,24.0,0.,24.0,2.,24.0,0.,24.0
1979-08-02 05:56:09.140 ,2,1,0.,24.0,0.,24.0,1.,24.0,0.,24.0
1979-08-02 05:56:33.140 ,6,1,1.,24.0,0.,24.0,0.,24.0,0.,24.0
1979-08-02 05:56:57.140 ,5,1,21.,24.0,0.,24.0,0.,24.0,0.,24.0
1979-08-02 05:57:21.140 ,1,1,0.,24.0,0.,24.0,0.,24.0,0.,24.0
1979-08-02 05:57:45.140 ,2,1,0.,24.0,0.,24.0,1.,24.0,0.,24.0
1979-08-02 05:58:09.140 ,6,1,1.,24.0,0.,24.0,0.,24.0,0.,24.0
1979-08-02 05:58:33.140 ,5,1,18.,24.0,0.,24.0,0.,24.0,0.,24.0
1979-08-02 05:58:57.140 ,1,1,0.,24.0,0.,24.0,1.,24.0,0.,24.0
1979-08-02 05:59:21.140 ,2,1,1.,24.0,0.,24.0,1.,24.0,0.,24.0
1979-08-02 05:59:45.140 ,6,1,0.,24.0,0.,24.0,0.,24.0,0.,24.0
1979-08-02 06:00:09.130 ,5,1,20.,24.0,0.,24.0,3.,24.0,0.,24.0
